Location: Fazenda Monte Alegre
(4.8500°S, 38.0333°W)
Time: 17:28:36
(UTC+00:00)

Cosmos 1891 Rocket - Pass Details

Date: 24 September 2020
Orbit: 934 x 1018 km, 82.9° (Epoch: 24 October)

Event Time Altitude Azimuth Distance (km) Brightness Sun altitude
Rises 20:41:36 0° 180° (S) 3,715 7.6 -4.3°
Reaches altitude 10° 20:44:10 10° 178° (S) 2,751 6.9 -5.0°
Maximum altitude 20:50:27 75° 93° (E) 1,005 4.5 -6.5°
Drops below altitude 10° 20:56:34 10° 8° (N) 2,678 6.7 -8.1°
Sets 20:59:02 0° 7° (N) 3,609 7.4 -8.7°
